Location: Archamps
(46.1365°N, 6.1329°E)
Time: 17:24:22
(UTC+00:00)

COSMOS 2455 - Pass Details

Date: 28 January 2023
Orbit: 898 x 911 km, 67.1° (Epoch: 29 March)

Event Time Altitude Azimuth Distance (km) Brightness Sun altitude
Rises 18:14:07 0° 222° (SW) 3,511 6.7 -17.3°
Reaches altitude 10° 18:16:38 10° 226° (SW) 2,576 6.0 -17.8°
Maximum altitude 18:22:33 62° 307° (NW) 1,019 3.3 -18.8°
Enters shadow 18:27:59 13° 26° (NNE) 2,401 4.7 -19.7°
